Hourly Weather Russkoe

Today, 22 April, Thursday

Time Temperature Precipitation Wind Pressure Humidity
00:00 +7°C° 0 mm 3 mps 751 mmHg 89%
01:00 +7°C° 0.1 mm 3 mps 751 mmHg 90%
02:00 +5°C° 0.1 mm 3 mps 751 mmHg 92%
03:00 +5°C° 0.1 mm 3 mps 751 mmHg 93%
04:00 +5°C° 0 mm 3 mps 752 mmHg 93%
05:00 +5°C° 0 mm 3 mps 752 mmHg 94%
06:00 +4°C° 0 mm 3 mps 752 mmHg 94%
07:00 +5°C° 0 mm 3 mps 753 mmHg 87%
08:00 +6°C° 0 mm 4 mps 753 mmHg 79%
09:00 +7°C° 0 mm 4 mps 754 mmHg 72%
10:00 +8°C° 0 mm 4 mps 754 mmHg 66%
11:00 +10°C° 0 mm 4 mps 754 mmHg 61%
12:00 +12°C° 0 mm 4 mps 754 mmHg 55%
13:00 +12°C° 0 mm 4 mps 754 mmHg 54%
14:00 +12°C° 0 mm 4 mps 754 mmHg 52%
15:00 +13°C° 0 mm 3 mps 754 mmHg 51%
16:00 +12°C° 0 mm 3 mps 754 mmHg 54%
17:00 +13°C° 0 mm 2 mps 754 mmHg 58%
18:00 +13°C° 0 mm 2 mps 755 mmHg 61%
19:00 +12°C° 0 mm 2 mps 755 mmHg 62%
20:00 +12°C° 0 mm 2 mps 755 mmHg 63%
21:00 +10°C° 0 mm 2 mps 755 mmHg 64%
22:00 +10°C° 0 mm 2 mps 755 mmHg 65%
23:00 +10°C° 0 mm 2 mps 755 mmHg 67%

Tomorrow, 23 April, Friday

Time Temperature Precipitation Wind Pressure Humidity
00:00 +10°C° 0 mm 3 mps 755 mmHg 68%
01:00 +9°C° 0 mm 3 mps 755 mmHg 68%
02:00 +9°C° 0 mm 2 mps 755 mmHg 67%
03:00 +9°C° 0 mm 2 mps 755 mmHg 67%
04:00 +9°C° 0 mm 3 mps 755 mmHg 69%
05:00 +9°C° 0 mm 3 mps 755 mmHg 70%
06:00 +9°C° 0 mm 3 mps 755 mmHg 72%
07:00 +10°C° 0 mm 3 mps 755 mmHg 68%
08:00 +12°C° 0 mm 4 mps 755 mmHg 64%
09:00 +13°C° 0 mm 4 mps 755 mmHg 60%
10:00 +14°C° 0 mm 4 mps 755 mmHg 55%
11:00 +15°C° 0 mm 4 mps 754 mmHg 51%
12:00 +16°C° 0 mm 3 mps 754 mmHg 47%
13:00 +17°C° 0 mm 3 mps 754 mmHg 46%
14:00 +17°C° 0 mm 4 mps 753 mmHg 45%
15:00 +17°C° 0 mm 4 mps 753 mmHg 44%
16:00 +15°C° 0.1 mm 4 mps 753 mmHg 49%
17:00 +15°C° 0.1 mm 4 mps 752 mmHg 55%
18:00 +14°C° 0.1 mm 4 mps 752 mmHg 60%
19:00 +13°C° 0.1 mm 3 mps 752 mmHg 67%
20:00 +11°C° 0.1 mm 3 mps 752 mmHg 74%
21:00 +10°C° 0.1 mm 3 mps 752 mmHg 82%
22:00 +9°C° 0 mm 3 mps 751 mmHg 83%
23:00 +9°C° 0 mm 3 mps 751 mmHg 85%

Day after tomorrow, 24 April, Saturday

Time Temperature Precipitation Wind Pressure Humidity
00:00 +9°C° 0 mm 3 mps 750 mmHg 86%
01:00 +8°C° 0.1 mm 3 mps 750 mmHg 88%
02:00 +7°C° 0.1 mm 4 mps 749 mmHg 89%
03:00 +7°C° 0.1 mm 4 mps 748 mmHg 91%
04:00 +7°C° 0.1 mm 4 mps 748 mmHg 90%
05:00 +7°C° 0.1 mm 4 mps 748 mmHg 90%
06:00 +7°C° 0.1 mm 4 mps 747 mmHg 90%
07:00 +8°C° 0 mm 4 mps 747 mmHg 84%
08:00 +10°C° 0 mm 4 mps 747 mmHg 78%
09:00 +12°C° 0 mm 4 mps 746 mmHg 73%
10:00 +12°C° 0.4 mm 5 mps 746 mmHg 69%
11:00 +13°C° 0.4 mm 5 mps 745 mmHg 66%
12:00 +13°C° 0.4 mm 6 mps 745 mmHg 62%
13:00 +9°C° 0.4 mm 6 mps 745 mmHg 72%
14:00 +7°C° 0.4 mm 6 mps 745 mmHg 81%
15:00 +3°C° 0.4 mm 6 mps 746 mmHg 90%
16:00 +3°C° 0 mm 5 mps 746 mmHg 86%
17:00 +5°C° 0 mm 4 mps 746 mmHg 81%
18:00 +5°C° 0 mm 4 mps 746 mmHg 77%
19:00 +5°C° 0 mm 3 mps 746 mmHg 78%
20:00 +5°C° 0 mm 3 mps 746 mmHg 79%
21:00 +6°C° 0 mm 2 mps 746 mmHg 80%
22:00 +6°C° 0.1 mm 2 mps 746 mmHg 82%
23:00 +6°C° 0.1 mm 2 mps 746 mmHg 84%

25 April, Sunday

Time Temperature Precipitation Wind Pressure Humidity
00:00 +5°C° 0.1 mm 2 mps 746 mmHg 85%
01:00 +4°C° 0.1 mm 3 mps 746 mmHg 83%
02:00 +4°C° 0.1 mm 3 mps 747 mmHg 80%
03:00 +4°C° 0.1 mm 3 mps 747 mmHg 78%
04:00 +4°C° 0 mm 3 mps 747 mmHg 80%
05:00 +3°C° 0 mm 3 mps 748 mmHg 82%
06:00 +2°C° 0 mm 3 mps 748 mmHg 84%
07:00 +4°C° 0 mm 4 mps 748 mmHg 76%
08:00 +5°C° 0 mm 5 mps 749 mmHg 67%
09:00 +6°C° 0 mm 5 mps 749 mmHg 58%
10:00 +5°C° 0.2 mm 6 mps 749 mmHg 56%
11:00 +7°C° 0.2 mm 6 mps 749 mmHg 54%
12:00 +7°C° 0.2 mm 6 mps 749 mmHg 52%
13:00 +7°C° 0.2 mm 6 mps 749 mmHg 49%
14:00 +8°C° 0.2 mm 7 mps 750 mmHg 46%
15:00 +8°C° 0.2 mm 7 mps 750 mmHg 43%
16:00 +8°C° 0.1 mm 6 mps 750 mmHg 46%
17:00 +7°C° 0.1 mm 6 mps 750 mmHg 49%
18:00 +7°C° 0.1 mm 6 mps 750 mmHg 51%
19:00 +6°C° 0 mm 5 mps 750 mmHg 58%
20:00 +5°C° 0 mm 5 mps 751 mmHg 64%
21:00 +3°C° 0 mm 4 mps 751 mmHg 70%
22:00 +3°C° 0 mm 3 mps 751 mmHg 74%
23:00 +2°C° 0 mm 3 mps 751 mmHg 77%

26 April, Monday

Time Temperature Precipitation Wind Pressure Humidity
00:00 +2°C° 0 mm 3 mps 751 mmHg 80%
01:00 +1°C° 0 mm 3 mps 751 mmHg 82%
02:00 +2°C° 0 mm 2 mps 751 mmHg 84%
03:00 +2°C° 0 mm 2 mps 751 mmHg 87%
04:00 +2°C° 0 mm 2 mps 751 mmHg 87%
05:00 +2°C° 0 mm 3 mps 751 mmHg 87%
06:00 +2°C° 0 mm 3 mps 751 mmHg 87%
07:00 +3°C° 0.1 mm 3 mps 751 mmHg 83%
08:00 +4°C° 0.1 mm 3 mps 751 mmHg 79%
09:00 +5°C° 0.1 mm 4 mps 751 mmHg 76%
10:00 +6°C° 0.3 mm 4 mps 750 mmHg 73%
11:00 +6°C° 0.3 mm 4 mps 750 mmHg 70%
12:00 +6°C° 0.3 mm 4 mps 750 mmHg 68%
13:00 +7°C° 0.2 mm 4 mps 750 mmHg 63%
14:00 +9°C° 0.2 mm 3 mps 750 mmHg 57%
15:00 +9°C° 0.2 mm 3 mps 749 mmHg 52%
16:00 +8°C° 0.2 mm 3 mps 749 mmHg 59%
17:00 +8°C° 0.2 mm 2 mps 749 mmHg 66%
18:00 +7°C° 0.2 mm 2 mps 748 mmHg 73%
19:00 +6°C° 1.7 mm 2 mps 748 mmHg 80%
20:00 +4°C° 1.7 mm 2 mps 748 mmHg 87%
21:00 +3°C° 1.7 mm 2 mps 748 mmHg 94%
22:00 +3°C° 0.5 mm 2 mps 748 mmHg 94%
23:00 +3°C° 0.5 mm 2 mps 748 mmHg 94%

27 April, Tuesday

Time Temperature Precipitation Wind Pressure Humidity
00:00 +3°C° 0.5 mm 2 mps 748 mmHg 95%
01:00 +3°C° 0 mm 2 mps 748 mmHg 95%
02:00 +2°C° 0 mm 3 mps 747 mmHg 95%
03:00 +2°C° 0 mm 3 mps 747 mmHg 95%
04:00 +2°C° 0.1 mm 3 mps 747 mmHg 94%
05:00 +2°C° 0.1 mm 3 mps 747 mmHg 92%
06:00 +2°C° 0.1 mm 3 mps 747 mmHg 91%
07:00 +3°C° 0.2 mm 3 mps 747 mmHg 83%
08:00 +4°C° 0.2 mm 3 mps 747 mmHg 76%
09:00 +7°C° 0.2 mm 3 mps 748 mmHg 69%
10:00 +7°C° 0.5 mm 3 mps 747 mmHg 64%
11:00 +7°C° 0.5 mm 4 mps 747 mmHg 59%
12:00 +8°C° 0.5 mm 4 mps 747 mmHg 55%
13:00 +8°C° 0.4 mm 4 mps 747 mmHg 54%
14:00 +8°C° 0.4 mm 5 mps 747 mmHg 53%
15:00 +8°C° 0.4 mm 5 mps 747 mmHg 52%
16:00 +7°C° 0.1 mm 5 mps 748 mmHg 52%
17:00 +7°C° 0.1 mm 4 mps 748 mmHg 53%
18:00 +7°C° 0.1 mm 4 mps 748 mmHg 54%
19:00 +6°C° 0 mm 4 mps 748 mmHg 60%
20:00 +4°C° 0 mm 3 mps 749 mmHg 66%
21:00 +3°C° 0 mm 3 mps 749 mmHg 72%
22:00 +3°C° 0 mm 3 mps 749 mmHg 75%
23:00 +3°C° 0 mm 4 mps 749 mmHg 77%
Show more